星链-11182 (STARLINK-11182)

导读

STARLINK-11182是美国太空探索技术公司(SpaceX)于2024年8月10日发射的星链(Starlink)低轨互联网星座卫星,归属美国。该卫星承载星链项目全球高速互联网覆盖目标,运行于近地轨道,为全球用户提供宽带网络服务,进一步扩充了星链星座的在轨卫星规模,推进星链星座组网进程。

基本信息
目录编号:
60399
目录名称:
STARLINK-11182
国际标识:
2024-141B
轨道中心:
EARTH
卫星名称:
星链-11182 (STARLINK-11182)
卫星全名:
星链-11182 (STARLINK-11182)
卫星状态:
在轨 (已飞行762 天)
发射日期:
2024-08-10 UTC
国别 :
美国 (US)
星等 :
--
该卫星已列入 空间交会检测服务 Space Conjunction Data Service (SCDS) ,当前飞行风险评估等级: 无高风险
轨道信息
数据来源 国际轨道数据
星历时间: 2026-09-09T18:20:15+0800
1天前
查看轨道信息
半长轴: 6737.867km
偏心率: 0.0000917
轨道倾角: 53.159°
近地点辐角 59.743°
升交点赤经 260.329°
平近点角 300.368°
近地点: 359.112km
远地点: 360.348km
周期: 91.737分钟
每日圈数: 15.69709
详细信息
卫星平台:
Starlink v2.0 mini
运营商:
太空探索技术公司
运营商所在国:
美国
制造商(研发单位):
太空探索技术公司
制造商所在国:
美国
使用方式:
暂无
卫星简介
星链(Starlink)计划是由太空探索技术公司(SpaceX)提出的一个巨型低轨卫星互联网星座项目,计划在2019年至2024年间在太空搭建由约1.2万颗卫星组成的“星链”网络,其中1584颗将部署在地球上空550千米处的近地轨道,并从2020年开始工作。该卫星仍在工作。
2D轨道图
3D轨道图
轨道高度分析图
轨道倾角分析图
轨道综合分析图
查看轨道综合分析图
交会数据列表
事件ID 空间交会对象 最接近时刻(TCA) 交会距离 交会风险概率(CRP) 交会风险指数(CRI) 操作
CDM_260911-234406-039906-194621
2026-09-11T
23:44:14+0000
1.891 km
极远距离
2.152759E-6 低风险 0.42
与全量物体交会距离演化趋势
与全量物体交会风险概率演化趋势